Schneifelwetter: Wetterstation Hallschlag, 537 m . NN
Wetterdaten: Montag, 10.09.2012
Datum Zeit Temp. A. Feuchte A. Luftdruck Regen Wind Richtung Richtung Sonnenschein Helligkeit T Regen Taupunkt Windchill
10.09.2012 00:14 8,6 C 80 % 1014 hPa 0,0 l/m 0,0 km/h (0 Bft) W-SW 245 0 min 0 lux 0 min 5,3 C 8,6 C
10.09.2012 00:29 8,4 C 80 % 1014 hPa 0,0 l/m 0,0 km/h (0 Bft) W-SW 245 0 min 0 lux 0 min 5,2 C 8,4 C
10.09.2012 00:44 8,0 C 81 % 1014 hPa 0,0 l/m 0,0 km/h (0 Bft) W-SW 245 0 min 0 lux 0 min 4,9 C 8,0 C
10.09.2012 00:59 7,8 C 83 % 1014 hPa 0,0 l/m 0,0 km/h (0 Bft) W-SW 245 0 min 0 lux 0 min 5,1 C 7,8 C
10.09.2012 01:14 7,7 C 83 % 1014 hPa 0,0 l/m 0,0 km/h (0 Bft) W-SW 245 0 min 0 lux 0 min 5,0 C 7,7 C
10.09.2012 01:29 7,4 C 83 % 1014 hPa 0,0 l/m 0,0 km/h (0 Bft) W-SW 245 0 min 0 lux 0 min 4,7 C 7,4 C
10.09.2012 01:44 7,2 C 84 % 1014 hPa 0,0 l/m 0,0 km/h (0 Bft) W-SW 245 0 min 0 lux 0 min 4,7 C 7,2 C
10.09.2012 01:59 7,1 C 85 % 1014 hPa 0,0 l/m 0,0 km/h (0 Bft) W-SW 245 0 min 0 lux 0 min 4,8 C 7,1 C
10.09.2012 02:14 6,9 C 85 % 1014 hPa 0,0 l/m 0,0 km/h (0 Bft) W-SW 245 0 min 0 lux 0 min 4,6 C 6,9 C
10.09.2012 02:29 6,8 C 85 % 1014 hPa 0,0 l/m 0,0 km/h (0 Bft) W-SW 245 0 min 0 lux 0 min 4,5 C 6,8 C
10.09.2012 02:44 6,6 C 85 % 1014 hPa 0,0 l/m 0,0 km/h (0 Bft) W-SW 245 0 min 0 lux 0 min 4,3 C 6,6 C
10.09.2012 02:59 6,4 C 85 % 1014 hPa 0,0 l/m 0,0 km/h (0 Bft) W-SW 245 0 min 0 lux 0 min 4,1 C 6,4 C
10.09.2012 03:14 6,4 C 86 % 1014 hPa 0,0 l/m 0,0 km/h (0 Bft) W-SW 245 0 min 0 lux 0 min 4,2 C 6,4 C
10.09.2012 03:29 6,4 C 87 % 1014 hPa 0,0 l/m 0,0 km/h (0 Bft) W-SW 245 0 min 0 lux 0 min 4,4 C 6,4 C
10.09.2012 03:44 6,4 C 87 % 1014 hPa 0,0 l/m 0,0 km/h (0 Bft) W-SW 245 0 min 0 lux 0 min 4,4 C 6,4 C
10.09.2012 03:59 6,3 C 87 % 1014 hPa 0,0 l/m 0,0 km/h (0 Bft) W-SW 245 0 min 0 lux 0 min 4,3 C 6,3 C
10.09.2012 04:14 6,2 C 87 % 1014 hPa 0,0 l/m 0,0 km/h (0 Bft) W-SW 245 0 min 0 lux 0 min 4,2 C 6,2 C
10.09.2012 04:29 6,1 C 88 % 1014 hPa 0,0 l/m 0,0 km/h (0 Bft) W-SW 245 0 min 0 lux 0 min 4,3 C 6,1 C
10.09.2012 04:44 6,2 C 88 % 1014 hPa 0,0 l/m 0,0 km/h (0 Bft) W-SW 245 0 min 0 lux 0 min 4,4 C 6,2 C
10.09.2012 04:59 6,0 C 88 % 1014 hPa 0,0 l/m 0,0 km/h (0 Bft) W-SW 245 0 min 0 lux 0 min 4,2 C 6,0 C
10.09.2012 05:14 6,0 C 88 % 1014 hPa 0,0 l/m 0,0 km/h (0 Bft) W-SW 245 0 min 0 lux 0 min 4,2 C 6,0 C
10.09.2012 05:29 6,0 C 89 % 1014 hPa 0,0 l/m 0,0 km/h (0 Bft) W-SW 245 0 min 0 lux 0 min 4,3 C 6,0 C
10.09.2012 05:44 5,9 C 89 % 1014 hPa 0,0 l/m 0,0 km/h (0 Bft) W-SW 245 0 min 0 lux 0 min 4,2 C 5,9 C
10.09.2012 05:59 6,0 C 89 % 1014 hPa 0,0 l/m 0,0 km/h (0 Bft) W-SW 245 0 min 0 lux 0 min 4,3 C 6,0 C
10.09.2012 06:14 6,0 C 89 % 1014 hPa 0,0 l/m 0,0 km/h (0 Bft) W-SW 245 0 min 0 lux 0 min 4,3 C 6,0 C
10.09.2012 06:29 5,9 C 89 % 1014 hPa 0,0 l/m 0,0 km/h (0 Bft) W-SW 245 0 min 0 lux 0 min 4,2 C 5,9 C
10.09.2012 06:44 5,9 C 90 % 1014 hPa 0,0 l/m 0,0 km/h (0 Bft) W-SW 245 0 min 50 lux 0 min 4,4 C 5,9 C
10.09.2012 06:59 6,0 C 90 % 1014 hPa 0,0 l/m 0,0 km/h (0 Bft) W-SW 245 0 min 520 lux 0 min 4,5 C 6,0 C
10.09.2012 07:14 6,1 C 90 % 1014 hPa 0,0 l/m 0,0 km/h (0 Bft) W-SW 245 0 min 1,63 klux 0 min 4,6 C 6,1 C
10.09.2012 07:29 6,6 C 90 % 1014 hPa 0,0 l/m 0,0 km/h (0 Bft) W-SW 245 0 min 4,42 klux 0 min 5,1 C 6,6 C
10.09.2012 07:44 6,9 C 90 % 1014 hPa 0,0 l/m 0,0 km/h (0 Bft) W-SW 245 0 min 5,13 klux 0 min 5,4 C 6,9 C
10.09.2012 07:59 7,4 C 90 % 1014 hPa 0,0 l/m 0,0 km/h (0 Bft) W-SW 245 0 min 7,55 klux 0 min 5,9 C 7,4 C
10.09.2012 08:14 7,9 C 90 % 1014 hPa 0,0 l/m 0,0 km/h (0 Bft) W-SW 245 0 min 9,3 klux 0 min 6,4 C 7,9 C
10.09.2012 08:29 8,7 C 90 % 1015 hPa 0,0 l/m 0,0 km/h (0 Bft) W-SW 245 0 min 17,0 klux 0 min 7,2 C 8,7 C
10.09.2012 08:44 9,9 C 90 % 1015 hPa 0,0 l/m 2,2 km/h (1 Bft) W-SW 245 0 min 18,6 klux 0 min 8,3 C 9,9 C
10.09.2012 08:59 11,0 C 90 % 1015 hPa 0,0 l/m 14,7 km/h (3 Bft) W-SW22.5 255 0 min 18,4 klux 0 min 9,4 C 6,5 C
10.09.2012 09:14 12,8 C 87 % 1015 hPa 0,0 l/m 15,4 km/h (3 Bft) W22.5 260 0 min 32,1 klux 0 min 10,7 C 8,4 C
10.09.2012 09:29 14,3 C 81 % 1015 hPa 0,0 l/m 19,0 km/h (3 Bft) W45 265 0 min 35,2 klux 0 min 11,1 C 9,1 C
10.09.2012 09:44 15,4 C 77 % 1015 hPa 0,0 l/m 21,6 km/h (4 Bft) W22.5 265 0 min 39,8 klux 0 min 11,4 C 9,9 C
10.09.2012 09:59 16,5 C 73 % 1015 hPa 0,0 l/m 20,5 km/h (4 Bft) W45 265 0 min 44,5 klux 0 min 11,6 C 11,6 C
10.09.2012 10:14 17,9 C 69 % 1015 hPa 0,0 l/m 23,5 km/h (4 Bft) W22.5 260 0 min 50,4 klux 0 min 12,1 C 12,8 C
10.09.2012 10:29 19,6 C 62 % 1015 hPa 0,0 l/m 22,7 km/h (4 Bft) W-SW45 255 0 min 53,6 klux 0 min 12,1 C 15,2 C
10.09.2012 10:44 20,6 C 60 % 1015 hPa 0,0 l/m 19,9 km/h (4 Bft) W-SW67.5 240 0 min 49,4 klux 0 min 12,6 C 17,0 C
10.09.2012 10:59 21,0 C 59 % 1015 hPa 0,0 l/m 18,2 km/h (3 Bft) W45 260 15 min 61,3 klux 0 min 12,7 C 17,8 C
10.09.2012 11:14 22,1 C 59 % 1015 hPa 0,0 l/m 21,5 km/h (4 Bft) W-SW67.5 250 15 min 66,0 klux 0 min 13,7 C 18,7 C
10.09.2012 11:29 22,6 C 56 % 1015 hPa 0,0 l/m 24,1 km/h (4 Bft) W-SW45 240 15 min 63,2 klux 0 min 13,4 C 19,0 C
10.09.2012 11:44 23,2 C 57 % 1015 hPa 0,0 l/m 23,1 km/h (4 Bft) W-SW45 240 15 min 66,6 klux 0 min 14,2 C 19,9 C
10.09.2012 11:59 23,5 C 56 % 1015 hPa 0,0 l/m 25,3 km/h (4 Bft) SW45 235 15 min 70,2 klux 0 min 14,2 C 20,1 C
10.09.2012 12:14 23,9 C 54 % 1015 hPa 0,0 l/m 25,8 km/h (4 Bft) W22.5 260 0 min 56,5 klux 0 min 14,0 C 20,6 C
10.09.2012 12:29 24,0 C 54 % 1015 hPa 0,0 l/m 24,8 km/h (4 Bft) W22.5 265 0 min 54,8 klux 0 min 14,1 C 20,8 C
10.09.2012 12:44 24,3 C 51 % 1015 hPa 0,0 l/m 19,4 km/h (3 Bft) W-SW45 250 15 min 79,0 klux 0 min 13,5 C 21,8 C
10.09.2012 12:59 24,6 C 52 % 1015 hPa 0,0 l/m 19,1 km/h (3 Bft) W-SW67.5 240 15 min 78,3 klux 0 min 14,1 C 22,3 C
10.09.2012 13:14 24,8 C 51 % 1015 hPa 0,0 l/m 25,1 km/h (4 Bft) W-SW45 250 15 min 70,8 klux 0 min 14,0 C 21,9 C
10.09.2012 13:29 24,5 C 50 % 1015 hPa 0,0 l/m 28,8 km/h (4 Bft) W22.5 260 15 min 68,9 klux 0 min 13,4 C 21,1 C
10.09.2012 13:44 24,8 C 51 % 1015 hPa 0,0 l/m 26,3 km/h (4 Bft) SW45 235 15 min 75,2 klux 0 min 14,0 C 21,8 C
10.09.2012 13:59 25,3 C 47 % 1015 hPa 0,0 l/m 30,2 km/h (5 Bft) SW45 230 15 min 73,4 klux 0 min 13,2 C 22,2 C
10.09.2012 14:14 25,4 C 48 % 1015 hPa 0,0 l/m 33,7 km/h (5 Bft) SW67.5 225 15 min 71,5 klux 0 min 13,6 C 22,1 C
10.09.2012 14:29 25,4 C 47 % 1015 hPa 0,0 l/m 26,1 km/h (4 Bft) S-SW45 205 15 min 74,2 klux 0 min 13,3 C 22,6 C
10.09.2012 14:44 25,5 C 46 % 1015 hPa 0,0 l/m 31,8 km/h (5 Bft) W-SW67.5 250 15 min 79,3 klux 0 min 13,0 C 22,3 C
10.09.2012 14:59 25,4 C 45 % 1014 hPa 0,0 l/m 37,5 km/h (5 Bft) W-SW45 255 15 min 91,7 klux 0 min 12,6 C 21,9 C
10.09.2012 15:14 24,6 C 47 % 1014 hPa 0,0 l/m 31,9 km/h (5 Bft) W-SW45 250 0 min 19,3 klux 0 min 12,5 C 21,0 C
10.09.2012 15:29 23,7 C 54 % 1015 hPa 0,0 l/m 22,0 km/h (4 Bft) SW45 235 15 min 78,4 klux 0 min 13,8 C 20,7 C
10.09.2012 15:44 24,0 C 53 % 1015 hPa 0,0 l/m 23,3 km/h (4 Bft) W45 260 15 min 69,5 klux 0 min 13,8 C 21,0 C
10.09.2012 15:59 24,0 C 53 % 1015 hPa 0,0 l/m 17,1 km/h (3 Bft) S-SW45 210 15 min 59,2 klux 0 min 13,8 C 21,8 C
10.09.2012 16:14 23,2 C 55 % 1015 hPa 0,0 l/m 22,0 km/h (4 Bft) SW67.5 235 0 min 23,9 klux 0 min 13,6 C 20,1 C
10.09.2012 16:29 23,4 C 54 % 1015 hPa 0,0 l/m 24,1 km/h (4 Bft) SW67.5 235 15 min 65,2 klux 0 min 13,6 C 20,1 C
10.09.2012 16:44 23,6 C 53 % 1014 hPa 0,0 l/m 27,7 km/h (4 Bft) SW67.5 215 0 min 53,2 klux 0 min 13,4 C 20,0 C
10.09.2012 16:59 23,6 C 52 % 1014 hPa 0,0 l/m 30,3 km/h (5 Bft) W-SW67.5 250 0 min 48,3 klux 0 min 13,2 C 19,8 C
10.09.2012 17:14 23,5 C 50 % 1015 hPa 0,0 l/m 30,1 km/h (5 Bft) SW67.5 225 0 min 45,0 klux 0 min 12,5 C 19,6 C
10.09.2012 17:29 23,3 C 51 % 1015 hPa 0,0 l/m 24,8 km/h (4 Bft) W22.5 260 0 min 41,3 klux 0 min 12,6 C 19,9 C
10.09.2012 17:44 22,8 C 52 % 1015 hPa 0,0 l/m 23,6 km/h (4 Bft) W-SW67.5 245 0 min 12,6 klux 0 min 12,4 C 19,3 C
10.09.2012 17:59 21,9 C 55 % 1015 hPa 0,0 l/m 15,1 km/h (3 Bft) SW67.5 225 0 min 14,5 klux 0 min 12,4 C 19,5 C
10.09.2012 18:14 21,7 C 56 % 1014 hPa 0,0 l/m 13,0 km/h (3 Bft) SW45 230 0 min 16,0 klux 0 min 12,5 C 19,7 C
10.09.2012 18:29 21,3 C 57 % 1014 hPa 0,0 l/m 14,9 km/h (3 Bft) SW45 230 0 min 23,4 klux 0 min 12,4 C 18,8 C
10.09.2012 18:44 20,6 C 58 % 1014 hPa 0,0 l/m 3,1 km/h (1 Bft) SW 215 0 min 5,62 klux 0 min 12,0 C 20,6 C
10.09.2012 18:59 19,9 C 59 % 1014 hPa 0,0 l/m 6,6 km/h (2 Bft) S-SW 210 0 min 4,81 klux 0 min 11,6 C 19,8 C
10.09.2012 19:14 19,4 C 60 % 1014 hPa 0,0 l/m 4,3 km/h (1 Bft) SW 215 0 min 2,76 klux 0 min 11,4 C 19,4 C
10.09.2012 19:29 18,8 C 61 % 1014 hPa 0,0 l/m 0,3 km/h (0 Bft) SW 215 0 min 2,00 klux 0 min 11,1 C 18,8 C
10.09.2012 19:44 18,5 C 63 % 1014 hPa 0,0 l/m 0,0 km/h (0 Bft) SW 215 0 min 1,73 klux 0 min 11,3 C 18,5 C
10.09.2012 19:59 18,0 C 63 % 1014 hPa 0,0 l/m 0,3 km/h (0 Bft) S-SW 210 0 min 817 lux 0 min 10,8 C 18,0 C
10.09.2012 20:14 17,7 C 65 % 1014 hPa 0,0 l/m 8,4 km/h (2 Bft) SW 215 0 min 231 lux 0 min 11,0 C 16,8 C
10.09.2012 20:29 17,3 C 65 % 1014 hPa 0,0 l/m 5,4 km/h (1 Bft) W 265 0 min 24 lux 0 min 10,7 C 17,3 C
10.09.2012 20:44 17,2 C 67 % 1014 hPa 0,0 l/m 6,3 km/h (2 Bft) W 265 0 min 6 lux 0 min 11,0 C 17,2 C
10.09.2012 20:59 16,9 C 67 % 1014 hPa 0,0 l/m 0,0 km/h (0 Bft) W 260 0 min 0 lux 0 min 10,7 C 16,9 C
10.09.2012 21:14 16,6 C 68 % 1014 hPa 0,0 l/m 0,0 km/h (0 Bft) W 260 0 min 0 lux 0 min 10,7 C 16,6 C
10.09.2012 21:29 16,2 C 69 % 1015 hPa 0,0 l/m 0,0 km/h (0 Bft) W 260 0 min 0 lux 0 min 10,5 C 16,2 C
10.09.2012 21:44 16,0 C 70 % 1015 hPa 0,0 l/m 0,0 km/h (0 Bft) W 260 0 min 0 lux 0 min 10,5 C 16,0 C
10.09.2012 21:59 15,6 C 71 % 1014 hPa 0,0 l/m 0,0 km/h (0 Bft) W 265 0 min 0 lux 0 min 10,4 C 15,6 C
10.09.2012 22:14 15,2 C 72 % 1014 hPa 0,0 l/m 0,0 km/h (0 Bft) W 265 0 min 0 lux 0 min 10,2 C 15,2 C
10.09.2012 22:29 15,0 C 73 % 1014 hPa 0,0 l/m 0,0 km/h (0 Bft) W 265 0 min 0 lux 0 min 10,2 C 15,0 C
10.09.2012 22:44 15,0 C 74 % 1014 hPa 0,0 l/m 0,0 km/h (0 Bft) W 265 0 min 0 lux 0 min 10,4 C 15,0 C
10.09.2012 22:59 15,0 C 74 % 1014 hPa 0,0 l/m 0,0 km/h (0 Bft) W 265 0 min 0 lux 0 min 10,4 C 15,0 C
10.09.2012 23:14 14,7 C 75 % 1014 hPa 0,0 l/m 0,0 km/h (0 Bft) W 265 0 min 0 lux 0 min 10,3 C 14,7 C
10.09.2012 23:29 14,8 C 76 % 1014 hPa 0,0 l/m 0,0 km/h (0 Bft) W 265 0 min 0 lux 0 min 10,6 C 14,8 C
10.09.2012 23:44 14,8 C 77 % 1014 hPa 0,0 l/m 0,0 km/h (0 Bft) W 265 0 min 0 lux 0 min 10,8 C 14,8 C
10.09.2012 23:59 14,8 C 78 % 1014 hPa 0,0 l/m 0,0 km/h (0 Bft) W 265 0 min 0 lux 0 min 11,0 C 14,8 C
_ Min-Zeit 05:44 14:59 00:14 - 00:14 - - - - - 02:59 05:44
Minimum _ 5,9 C 45 % 1014 hPa - 0,0 km/h (0 Bft) - - - - - 4,1 C 5,9 C
_ Max-Zeit 14:44 06:44 08:29 00:14 14:59 - - 10:59 14:59 00:14 11:59 14:29
Maximum _ 25,5 C 90 % 1015 hPa 0,0 l/m 37,5 km/h
W-SW (5 Bft)
- - 15 min 91,7 klux 0 min 14,2 C 22,6 C
Durchschnitt _ 15,3 C 71 % 1015 hPa #0,0 l/m 10,0 km/h (2 Bft) SW - #4:45 h 22,7 klux #0 min. 9,5 C 13,9 C